Time,TemperatureF,DewpointF,PressureIn,WindDirection,WindDirectionDegrees,WindSpeedMPH,WindSpeedGustMPH,Humidity,HourlyPrecipIn,Conditions,Clouds,dailyrainin,SolarRadiationWatts/m^2,SoftwareType,DateUTC
2013-01-28 00:00:00,55.8,48.3,29.91,WNW,293,0.0,1.0,76,0.00,,,0.00,0,WeatherCatV1.11B39,2013-01-28 07:00:00,
2013-01-28 00:05:00,55.7,48.3,29.91,WNW,293,0.0,0.0,76,0.00,,,0.00,0,WeatherCatV1.11B39,2013-01-28 07:05:00,
2013-01-28 00:10:00,55.6,48.5,29.91,WNW,293,0.0,0.0,77,0.00,,,0.00,0,WeatherCatV1.11B39,2013-01-28 07:10:00,
2013-01-28 00:15:00,55.5,48.4,29.91,WNW,293,0.0,1.0,77,0.00,,,0.00,0,WeatherCatV1.11B39,2013-01-28 07:15:00,
2013-01-28 00:20:00,55.4,48.3,29.91,WNW,293,0.0,0.0,77,0.00,,,0.00,0,WeatherCatV1.11B39,2013-01-28 07:20:00,
2013-01-28 00:25:00,55.3,48.2,29.90,WNW,293,0.0,1.0,77,0.00,,,0.00,0,WeatherCatV1.11B39,2013-01-28 07:25:00,
2013-01-28 00:30:00,55.2,48.1,29.90,WNW,293,0.0,0.0,77,0.00,,,0.00,0,WeatherCatV1.11B39,2013-01-28 07:30:00,
2013-01-28 00:35:00,55.1,48.0,29.90,WNW,293,1.0,1.0,77,0.00,,,0.00,0,WeatherCatV1.11B39,2013-01-28 07:35:00,
2013-01-28 00:40:00,55.1,48.4,29.90,WNW,293,0.0,0.0,78,0.00,,,0.00,0,WeatherCatV1.11B39,2013-01-28 07:40:00,
2013-01-28 00:45:00,55.1,48.4,29.90,WNW,293,0.0,0.0,78,0.00,,,0.00,0,WeatherCatV1.11B39,2013-01-28 07:45:00,
2013-01-28 00:50:00,55.0,48.6,29.90,WNW,293,0.0,1.0,79,0.00,,,0.00,0,WeatherCatV1.11B39,2013-01-28 07:50:00,
2013-01-28 00:55:00,55.0,48.6,29.90,WNW,293,0.0,0.0,79,0.00,,,0.00,0,WeatherCatV1.11B39,2013-01-28 07:55:00,
2013-01-28 01:00:00,55.0,48.6,29.90,WNW,293,0.0,1.0,79,0.00,,,0.00,0,WeatherCatV1.11B39,2013-01-28 08:00:00,
2013-01-28 01:05:00,55.0,48.6,29.90,WNW,293,1.0,3.0,79,0.00,,,0.00,0,WeatherCatV1.11B39,2013-01-28 08:05:00,
2013-01-28 01:10:00,55.0,48.6,29.90,WNW,293,1.0,2.0,79,0.00,,,0.00,0,WeatherCatV1.11B39,2013-01-28 08:10:00,
2013-01-28 01:15:00,55.0,48.6,29.90,WNW,293,0.0,3.0,79,0.00,,,0.00,0,WeatherCatV1.11B39,2013-01-28 08:15:00,
2013-01-28 01:20:00,55.0,48.6,29.90,WNW,293,0.0,0.0,79,0.00,,,0.00,0,WeatherCatV1.11B39,2013-01-28 08:20:00,
2013-01-28 01:25:00,55.1,48.7,29.90,WNW,293,0.0,0.0,79,0.00,,,0.00,0,WeatherCatV1.11B39,2013-01-28 08:25:00,
2013-01-28 01:30:00,55.0,48.6,29.90,WNW,293,0.0,0.0,79,0.00,,,0.00,0,WeatherCatV1.11B39,2013-01-28 08:30:00,
2013-01-28 01:35:00,55.0,48.6,29.90,WNW,293,0.0,0.0,79,0.00,,,0.00,0,WeatherCatV1.11B39,2013-01-28 08:35:00,
2013-01-28 01:40:00,55.0,48.6,29.90,WNW,293,0.0,0.0,79,0.00,,,0.00,0,WeatherCatV1.11B39,2013-01-28 08:40:00,
2013-01-28 01:45:00,55.0,48.6,29.90,WNW,293,0.0,0.0,79,0.00,,,0.00,0,WeatherCatV1.11B39,2013-01-28 08:45:00,
2013-01-28 01:50:00,54.9,48.5,29.90,WNW,293,0.0,1.0,79,0.00,,,0.00,0,WeatherCatV1.11B39,2013-01-28 08:50:00,
2013-01-28 01:55:00,54.9,48.5,29.90,WNW,293,1.0,2.0,79,0.00,,,0.00,0,WeatherCatV1.11B39,2013-01-28 08:55:00,
2013-01-28 02:00:00,54.8,48.7,29.90,WNW,293,1.0,3.0,80,0.00,,,0.00,0,WeatherCatV1.11B39,2013-01-28 09:00:00,
2013-01-28 02:05:00,54.7,48.7,29.90,WNW,293,0.0,2.0,80,0.00,,,0.00,0,WeatherCatV1.11B39,2013-01-28 09:05:00,
2013-01-28 02:10:00,54.7,48.7,29.90,WNW,293,0.0,1.0,80,0.00,,,0.00,0,WeatherCatV1.11B39,2013-01-28 09:10:00,
2013-01-28 02:15:00,54.7,48.7,29.89,WNW,293,0.0,1.0,80,0.00,,,0.00,0,WeatherCatV1.11B39,2013-01-28 09:15:00,
2013-01-28 02:20:00,54.8,48.7,29.89,WNW,293,0.0,2.0,80,0.00,,,0.00,0,WeatherCatV1.11B39,2013-01-28 09:20:00,
2013-01-28 02:25:00,54.8,48.7,29.89,WNW,293,0.0,2.0,80,0.00,,,0.00,0,WeatherCatV1.11B39,2013-01-28 09:25:00,
2013-01-28 02:30:00,54.8,48.7,29.89,WNW,293,0.0,2.0,80,0.00,,,0.00,0,WeatherCatV1.11B39,2013-01-28 09:30:00,
2013-01-28 02:35:00,54.8,48.7,29.90,WNW,293,1.0,2.0,80,0.00,,,0.00,0,WeatherCatV1.11B39,2013-01-28 09:35:00,
2013-01-28 02:40:00,54.8,48.7,29.89,WNW,293,2.0,2.0,80,0.00,,,0.00,0,WeatherCatV1.11B39,2013-01-28 09:40:00,
2013-01-28 02:45:00,54.8,48.7,29.89,WNW,293,0.0,1.0,80,0.00,,,0.00,0,WeatherCatV1.11B39,2013-01-28 09:45:00,
2013-01-28 02:50:00,54.8,48.7,29.89,WNW,293,1.0,4.0,80,0.00,,,0.00,0,WeatherCatV1.11B39,2013-01-28 09:50:00,
2013-01-28 02:55:00,54.8,48.7,29.90,WNW,296,2.0,3.0,80,0.00,,,0.00,0,WeatherCatV1.11B39,2013-01-28 09:55:00,
2013-01-28 03:00:00,54.8,48.4,29.89,WNW,282,2.0,6.0,79,0.00,,,0.00,0,WeatherCatV1.11B39,2013-01-28 10:00:00,
2013-01-28 03:05:00,54.9,48.5,29.90,WNW,285,2.0,5.0,79,0.00,,,0.00,0,WeatherCatV1.11B39,2013-01-28 10:05:00,
2013-01-28 03:10:00,54.9,48.2,29.90,West,272,2.0,3.0,78,0.00,,,0.00,0,WeatherCatV1.11B39,2013-01-28 10:10:00,
2013-01-28 03:15:00,55.0,48.3,29.90,WSW,253,3.0,4.0,78,0.00,,,0.00,0,WeatherCatV1.11B39,2013-01-28 10:15:00,
2013-01-28 03:20:00,55.0,48.3,29.89,West,261,3.0,6.0,78,0.00,,,0.00,0,WeatherCatV1.11B39,2013-01-28 10:20:00,
2013-01-28 03:25:00,55.0,48.3,29.89,West,262,1.0,2.0,78,0.00,,,0.00,0,WeatherCatV1.11B39,2013-01-28 10:25:00,
2013-01-28 03:30:00,55.0,48.3,29.89,West,262,2.0,2.0,78,0.00,,,0.00,0,WeatherCatV1.11B39,2013-01-28 10:30:00,
2013-01-28 03:35:00,55.0,48.3,29.89,WNW,301,2.0,3.0,78,0.00,,,0.00,0,WeatherCatV1.11B39,2013-01-28 10:35:00,
2013-01-28 03:40:00,55.0,48.3,29.89,WNW,301,1.0,2.0,78,0.00,,,0.00,0,WeatherCatV1.11B39,2013-01-28 10:40:00,
2013-01-28 03:45:00,54.9,47.8,29.89,WNW,301,2.0,4.0,77,0.00,,,0.00,0,WeatherCatV1.11B39,2013-01-28 10:45:00,
2013-01-28 03:50:00,54.9,47.8,29.89,NW,307,2.0,3.0,77,0.00,,,0.00,0,WeatherCatV1.11B39,2013-01-28 10:50:00,
2013-01-28 03:55:00,54.9,47.5,29.89,NW,311,6.0,7.0,76,0.00,,,0.00,0,WeatherCatV1.11B39,2013-01-28 10:55:00,
2013-01-28 04:00:00,55.0,47.2,29.88,WNW,292,3.0,3.0,75,0.00,,,0.00,0,WeatherCatV1.11B39,2013-01-28 11:00:00,
2013-01-28 04:05:00,55.0,47.2,29.88,West,274,5.0,8.0,75,0.00,,,0.00,0,WeatherCatV1.11B39,2013-01-28 11:05:00,
2013-01-28 04:10:00,55.0,46.9,29.88,NW,315,7.0,7.0,74,0.00,,,0.00,0,WeatherCatV1.11B39,2013-01-28 11:10:00,
2013-01-28 04:15:00,55.0,46.9,29.88,NW,307,4.0,7.0,74,0.00,,,0.00,0,WeatherCatV1.11B39,2013-01-28 11:15:00,
2013-01-28 04:20:00,55.0,46.5,29.88,WNW,299,4.0,6.0,73,0.00,,,0.00,0,WeatherCatV1.11B39,2013-01-28 11:20:00,
2013-01-28 04:25:00,55.0,46.5,29.88,WNW,294,4.0,6.0,73,0.00,,,0.00,0,WeatherCatV1.11B39,2013-01-28 11:25:00,
2013-01-28 04:30:00,55.1,46.2,29.88,WNW,301,3.0,8.0,72,0.00,,,0.00,0,WeatherCatV1.11B39,2013-01-28 11:30:00,
2013-01-28 04:35:00,55.2,46.3,29.88,West,279,5.0,6.0,72,0.00,,,0.00,0,WeatherCatV1.11B39,2013-01-28 11:35:00,
2013-01-28 04:40:00,55.2,46.3,29.88,NW,310,3.0,7.0,72,0.00,,,0.00,0,WeatherCatV1.11B39,2013-01-28 11:40:00,
2013-01-28 04:45:00,55.2,46.3,29.88,WNW,292,4.0,7.0,72,0.00,,,0.00,0,WeatherCatV1.11B39,2013-01-28 11:45:00,
2013-01-28 04:50:00,55.2,46.3,29.88,WNW,289,6.0,8.0,72,0.00,,,0.00,0,WeatherCatV1.11B39,2013-01-28 11:50:00,
2013-01-28 04:54:00,55.2,46.3,29.88,WNW,291,2.0,8.0,72,0.00,,,0.00,0,WeatherCatV1.11B39,2013-01-28 11:54:00,
2013-01-28 04:59:00,55.2,46.3,29.88,West,270,4.0,7.0,72,0.00,,,0.00,0,WeatherCatV1.11B39,2013-01-28 11:59:00,
2013-01-28 05:04:00,55.1,46.2,29.88,WNW,284,6.0,7.0,72,0.00,,,0.00,0,WeatherCatV1.11B39,2013-01-28 12:04:00,
2013-01-28 05:09:00,55.1,46.2,29.88,WNW,286,5.0,5.0,72,0.00,,,0.00,0,WeatherCatV1.11B39,2013-01-28 12:09:00,
2013-01-28 05:14:00,55.0,46.1,29.88,WNW,297,3.0,9.0,72,0.00,,,0.00,0,WeatherCatV1.11B39,2013-01-28 12:14:00,
2013-01-28 05:19:00,55.0,46.1,29.88,WNW,297,3.0,5.0,72,0.00,,,0.00,0,WeatherCatV1.11B39,2013-01-28 12:19:00,
2013-01-28 05:24:00,55.0,46.1,29.88,West,276,4.0,9.0,72,0.00,,,0.00,0,WeatherCatV1.11B39,2013-01-28 12:24:00,
2013-01-28 05:29:00,54.9,46.0,29.88,West,268,4.0,8.0,72,0.00,,,0.00,0,WeatherCatV1.11B39,2013-01-28 12:29:00,
2013-01-28 05:34:00,54.9,46.0,29.88,West,264,6.0,7.0,72,0.00,,,0.00,0,WeatherCatV1.11B39,2013-01-28 12:34:00,
2013-01-28 05:39:00,54.8,45.9,29.88,West,262,3.0,7.0,72,0.00,,,0.00,0,WeatherCatV1.11B39,2013-01-28 12:39:00,
2013-01-28 05:44:00,54.8,45.9,29.88,WSW,245,3.0,8.0,72,0.00,,,0.00,0,WeatherCatV1.11B39,2013-01-28 12:44:00,
2013-01-28 05:49:00,54.8,45.9,29.88,West,259,6.0,9.0,72,0.00,,,0.00,0,WeatherCatV1.11B39,2013-01-28 12:49:00,
2013-01-28 05:54:00,54.7,46.2,29.88,WSW,245,3.0,9.0,73,0.00,,,0.00,0,WeatherCatV1.11B39,2013-01-28 12:54:00,
2013-01-28 05:59:00,54.7,46.2,29.88,WSW,253,6.0,9.0,73,0.00,,,0.00,0,WeatherCatV1.11B39,2013-01-28 12:59:00,
2013-01-28 06:04:00,54.7,46.2,29.88,West,274,4.0,10.0,73,0.00,,,0.00,0,WeatherCatV1.11B39,2013-01-28 13:04:00,
2013-01-28 06:09:00,54.6,46.1,29.89,SW,229,3.0,6.0,73,0.00,,,0.00,0,WeatherCatV1.11B39,2013-01-28 13:09:00,
2013-01-28 06:14:00,54.6,46.1,29.89,WSW,258,4.0,7.0,73,0.00,,,0.00,0,WeatherCatV1.11B39,2013-01-28 13:14:00,
2013-01-28 06:19:00,54.5,46.0,29.88,SW,232,6.0,8.0,73,0.00,,,0.00,0,WeatherCatV1.11B39,2013-01-28 13:19:00,
2013-01-28 06:24:00,54.5,46.4,29.88,West,261,4.0,4.0,74,0.00,,,0.00,0,WeatherCatV1.11B39,2013-01-28 13:24:00,
2013-01-28 06:29:00,54.4,46.3,29.88,West,270,5.0,6.0,74,0.00,,,0.00,0,WeatherCatV1.11B39,2013-01-28 13:29:00,
2013-01-28 06:34:00,54.3,46.2,29.88,WNW,288,3.0,3.0,74,0.00,,,0.00,0,WeatherCatV1.11B39,2013-01-28 13:34:00,
2013-01-28 06:39:00,54.2,46.1,29.88,West,272,4.0,6.0,74,0.00,,,0.00,0,WeatherCatV1.11B39,2013-01-28 13:39:00,
2013-01-28 06:44:00,54.1,46.0,29.89,West,263,4.0,5.0,74,0.00,,,0.00,0,WeatherCatV1.11B39,2013-01-28 13:44:00,
2013-01-28 06:49:00,54.0,45.9,29.89,West,262,3.0,9.0,74,0.00,,,0.00,0,WeatherCatV1.11B39,2013-01-28 13:49:00,
2013-01-28 06:54:00,54.0,45.9,29.89,WSW,244,3.0,11.0,74,0.00,,,0.00,0,WeatherCatV1.11B39,2013-01-28 13:54:00,
2013-01-28 06:59:00,54.0,45.9,29.90,SW,233,3.0,8.0,74,0.00,,,0.00,0,WeatherCatV1.11B39,2013-01-28 13:59:00,
2013-01-28 07:04:00,54.1,46.0,29.90,West,261,2.0,5.0,74,0.00,,,0.00,0,WeatherCatV1.11B39,2013-01-28 14:04:00,
2013-01-28 07:09:00,54.1,46.0,29.90,WNW,284,4.0,4.0,74,0.00,,,0.00,0,WeatherCatV1.11B39,2013-01-28 14:09:00,
2013-01-28 07:14:00,54.0,45.9,29.90,WNW,283,2.0,3.0,74,0.00,,,0.00,5,WeatherCatV1.11B39,2013-01-28 14:14:00,
2013-01-28 07:19:00,54.0,45.9,29.90,West,263,5.0,5.0,74,0.00,,,0.00,0,WeatherCatV1.11B39,2013-01-28 14:19:00,
2013-01-28 07:24:00,53.9,45.8,29.90,West,265,5.0,6.0,74,0.00,,,0.00,7,WeatherCatV1.11B39,2013-01-28 14:24:00,
2013-01-28 07:29:00,53.9,45.8,29.90,WNW,288,5.0,6.0,74,0.00,,,0.00,12,WeatherCatV1.11B39,2013-01-28 14:29:00,
2013-01-28 07:34:00,53.9,45.8,29.90,WSW,237,2.0,3.0,74,0.00,,,0.00,12,WeatherCatV1.11B39,2013-01-28 14:34:00,
2013-01-28 07:39:00,53.9,45.8,29.90,WSW,247,1.0,5.0,74,0.00,,,0.00,19,WeatherCatV1.11B39,2013-01-28 14:39:00,
2013-01-28 07:44:00,53.8,46.1,29.90,WNW,284,6.0,6.0,75,0.00,,,0.00,23,WeatherCatV1.11B39,2013-01-28 14:44:00,
2013-01-28 07:49:00,53.8,46.1,29.90,WNW,290,3.0,5.0,75,0.00,,,0.00,42,WeatherCatV1.11B39,2013-01-28 14:49:00,
2013-01-28 07:54:00,53.8,46.1,29.90,SW,221,4.0,6.0,75,0.00,,,0.00,42,WeatherCatV1.11B39,2013-01-28 14:54:00,
2013-01-28 07:59:00,53.8,46.1,29.90,WNW,294,4.0,4.0,75,0.00,,,0.00,30,WeatherCatV1.11B39,2013-01-28 14:59:00,
2013-01-28 08:04:00,53.8,46.1,29.90,WNW,286,3.0,4.0,75,0.00,,,0.00,26,WeatherCatV1.11B39,2013-01-28 15:04:00,
2013-01-28 08:09:00,53.9,46.2,29.91,West,278,3.0,5.0,75,0.00,,,0.00,23,WeatherCatV1.11B39,2013-01-28 15:09:00,
2013-01-28 08:14:00,53.9,46.2,29.90,WNW,284,4.0,5.0,75,0.00,,,0.00,33,WeatherCatV1.11B39,2013-01-28 15:14:00,
2013-01-28 08:19:00,53.9,46.2,29.91,WNW,288,6.0,8.0,75,0.00,,,0.00,56,WeatherCatV1.11B39,2013-01-28 15:19:00,
2013-01-28 08:24:00,54.0,46.3,29.90,NW,325,4.0,5.0,75,0.00,,,0.00,81,WeatherCatV1.11B39,2013-01-28 15:24:00,
2013-01-28 08:29:00,54.1,46.4,29.90,West,278,9.0,9.0,75,0.00,,,0.00,51,WeatherCatV1.11B39,2013-01-28 15:29:00,
2013-01-28 08:34:00,54.2,46.4,29.90,WSW,257,5.0,10.0,75,0.00,,,0.00,40,WeatherCatV1.11B39,2013-01-28 15:34:00,
2013-01-28 08:39:00,54.2,46.8,29.90,WSW,242,5.0,11.0,76,0.00,,,0.00,49,WeatherCatV1.11B39,2013-01-28 15:39:00,
2013-01-28 08:44:00,54.1,47.4,29.91,WSW,245,6.0,8.0,78,0.00,,,0.01,84,WeatherCatV1.11B39,2013-01-28 15:44:00,
2013-01-28 08:49:00,53.8,47.1,29.91,SW,231,5.0,10.0,78,0.00,,,0.01,105,WeatherCatV1.11B39,2013-01-28 15:49:00,
2013-01-28 08:54:00,53.7,47.0,29.91,West,265,8.0,10.0,78,0.00,,,0.01,69,WeatherCatV1.11B39,2013-01-28 15:54:00,
2013-01-28 08:59:00,53.6,46.9,29.91,West,265,7.0,11.0,78,0.00,,,0.01,39,WeatherCatV1.11B39,2013-01-28 15:59:00,
2013-01-28 09:04:00,53.5,46.8,29.91,WSW,258,6.0,10.0,78,0.00,,,0.01,65,WeatherCatV1.11B39,2013-01-28 16:04:00,
2013-01-28 09:09:00,53.4,46.4,29.91,WSW,242,8.0,12.0,77,0.00,,,0.01,100,WeatherCatV1.11B39,2013-01-28 16:09:00,
2013-01-28 09:14:00,53.4,46.0,29.91,West,269,10.0,13.0,76,0.00,,,0.01,97,WeatherCatV1.11B39,2013-01-28 16:14:00,
2013-01-28 09:19:00,53.4,45.3,29.91,West,265,10.0,17.0,74,0.00,,,0.01,113,WeatherCatV1.11B39,2013-01-28 16:19:00,
2013-01-28 09:24:00,53.5,45.1,29.91,West,261,13.0,15.0,73,0.00,,,0.01,104,WeatherCatV1.11B39,2013-01-28 16:24:00,
2013-01-28 09:29:00,53.6,44.8,29.92,WSW,251,12.0,13.0,72,0.00,,,0.01,141,WeatherCatV1.11B39,2013-01-28 16:29:00,
2013-01-28 09:34:00,53.7,44.5,29.91,WSW,241,7.0,17.0,71,0.00,,,0.01,155,WeatherCatV1.11B39,2013-01-28 16:34:00,
2013-01-28 09:39:00,53.9,44.7,29.91,West,279,9.0,19.0,71,0.00,,,0.01,155,WeatherCatV1.11B39,2013-01-28 16:39:00,
2013-01-28 09:44:00,53.9,44.3,29.91,WNW,284,13.0,16.0,70,0.00,,,0.01,62,WeatherCatV1.11B39,2013-01-28 16:44:00,
2013-01-28 09:49:00,53.9,44.7,29.90,West,274,10.0,18.0,71,0.00,,,0.01,30,WeatherCatV1.11B39,2013-01-28 16:49:00,
2013-01-28 09:54:00,53.4,45.3,29.91,West,278,17.0,17.0,74,0.00,,,0.02,155,WeatherCatV1.11B39,2013-01-28 16:54:00,
2013-01-28 09:59:00,52.7,45.7,29.91,WSW,254,14.0,17.0,77,0.10,,,0.03,100,WeatherCatV1.11B39,2013-01-28 16:59:00,
2013-01-28 10:04:00,52.1,45.8,29.91,WSW,239,11.0,13.0,79,0.10,,,0.03,93,WeatherCatV1.11B39,2013-01-28 17:04:00,
2013-01-28 10:09:00,51.4,45.8,29.92,WSW,240,6.0,21.0,81,0.07,,,0.04,320,WeatherCatV1.11B39,2013-01-28 17:09:00,
2013-01-28 10:14:00,51.7,46.1,29.92,West,259,8.0,11.0,81,0.07,,,0.04,142,WeatherCatV1.11B39,2013-01-28 17:14:00,
2013-01-28 10:19:00,51.8,45.8,29.92,WSW,242,8.0,14.0,80,0.05,,,0.04,114,WeatherCatV1.11B39,2013-01-28 17:19:00,
2013-01-28 10:24:00,52.0,47.0,29.92,SW,235,6.0,14.0,83,0.05,,,0.05,642,WeatherCatV1.11B39,2013-01-28 17:24:00,
2013-01-28 10:29:00,52.8,47.5,29.91,West,263,4.0,9.0,82,0.05,,,0.05,540,WeatherCatV1.11B39,2013-01-28 17:29:00,
2013-01-28 10:34:00,53.9,47.9,29.91,WNW,293,4.0,11.0,80,0.04,,,0.05,570,WeatherCatV1.11B39,2013-01-28 17:34:00,
2013-01-28 10:39:00,54.4,48.4,29.91,West,269,6.0,7.0,80,0.00,,,0.05,308,WeatherCatV1.11B39,2013-01-28 17:39:00,
2013-01-28 10:44:00,55.1,47.0,29.91,South,189,6.0,7.0,74,0.00,,,0.05,269,WeatherCatV1.11B39,2013-01-28 17:44:00,
2013-01-28 10:49:00,55.3,46.8,29.90,West,279,4.0,9.0,73,0.00,,,0.05,148,WeatherCatV1.11B39,2013-01-28 17:49:00,
2013-01-28 10:54:00,54.9,46.0,29.91,SW,233,9.0,9.0,72,0.00,,,0.05,60,WeatherCatV1.11B39,2013-01-28 17:54:00,
2013-01-28 10:59:00,54.4,45.2,29.91,West,266,15.0,16.0,71,0.00,,,0.05,79,WeatherCatV1.11B39,2013-01-28 17:59:00,
2013-01-28 11:04:00,53.5,45.4,29.92,WSW,257,13.0,16.0,74,0.00,,,0.06,47,WeatherCatV1.11B39,2013-01-28 18:04:00,
2013-01-28 11:09:00,51.5,45.2,29.92,WNW,291,14.0,15.0,79,0.16,,,0.07,93,WeatherCatV1.11B39,2013-01-28 18:09:00,
2013-01-28 11:14:00,50.0,45.0,29.93,WNW,288,10.0,12.0,83,0.12,,,0.08,113,WeatherCatV1.11B39,2013-01-28 18:14:00,
2013-01-28 11:19:00,49.2,45.2,29.93,WSW,253,8.0,10.0,86,0.06,,,0.08,156,WeatherCatV1.11B39,2013-01-28 18:19:00,
2013-01-28 11:24:00,48.9,45.2,29.93,West,267,7.0,9.0,87,0.04,,,0.08,98,WeatherCatV1.11B39,2013-01-28 18:24:00,
2013-01-28 11:29:00,48.8,45.1,29.93,WNW,283,4.0,10.0,87,0.00,,,0.08,102,WeatherCatV1.11B39,2013-01-28 18:29:00,
2013-01-28 11:34:00,48.6,45.2,29.93,West,280,9.0,12.0,88,0.00,,,0.08,135,WeatherCatV1.11B39,2013-01-28 18:34:00,
2013-01-28 11:39:00,48.5,45.4,29.93,West,270,5.0,10.0,89,0.00,,,0.08,325,WeatherCatV1.11B39,2013-01-28 18:39:00,
2013-01-28 11:44:00,49.3,46.5,29.93,WNW,301,8.0,9.0,90,0.00,,,0.08,805,WeatherCatV1.11B39,2013-01-28 18:44:00,
2013-01-28 11:50:00,50.4,47.0,29.93,NW,307,4.0,9.0,88,0.00,,,0.08,700,WeatherCatV1.11B39,2013-01-28 18:50:00,
2013-01-28 11:55:00,51.9,47.5,29.93,West,281,5.0,10.0,85,0.00,,,0.08,687,WeatherCatV1.11B39,2013-01-28 18:55:00,
2013-01-28 12:00:00,52.8,46.1,29.93,West,270,10.0,14.0,78,0.00,,,0.08,684,WeatherCatV1.11B39,2013-01-28 19:00:00,
2013-01-28 12:05:00,53.3,45.9,29.92,WNW,283,8.0,14.0,76,0.00,,,0.09,705,WeatherCatV1.11B39,2013-01-28 19:05:00,
2013-01-28 12:10:00,53.2,44.8,29.92,West,276,5.0,20.0,73,0.00,,,0.09,691,WeatherCatV1.11B39,2013-01-28 19:10:00,
2013-01-28 12:15:00,53.4,45.3,29.92,West,274,9.0,14.0,74,0.00,,,0.09,656,WeatherCatV1.11B39,2013-01-28 19:15:00,
2013-01-28 12:20:00,54.1,44.5,29.92,West,272,7.0,12.0,70,0.00,,,0.09,708,WeatherCatV1.11B39,2013-01-28 19:20:00,
2013-01-28 12:25:00,54.7,44.7,29.92,West,275,8.0,11.0,69,0.00,,,0.09,626,WeatherCatV1.11B39,2013-01-28 19:25:00,
2013-01-28 12:30:00,54.2,44.3,29.91,WSW,249,10.0,12.0,69,0.00,,,0.09,417,WeatherCatV1.11B39,2013-01-28 19:30:00,
2013-01-28 12:35:00,54.8,43.7,29.91,West,269,10.0,12.0,66,0.00,,,0.09,877,WeatherCatV1.11B39,2013-01-28 19:35:00,
2013-01-28 12:40:00,54.0,43.7,29.91,WSW,249,9.0,14.0,68,0.00,,,0.09,278,WeatherCatV1.11B39,2013-01-28 19:40:00,
2013-01-28 12:45:00,53.7,43.4,29.91,WSW,254,5.0,13.0,68,0.00,,,0.09,250,WeatherCatV1.11B39,2013-01-28 19:45:00,
2013-01-28 12:50:00,53.5,42.8,29.90,WNW,293,6.0,13.0,67,0.00,,,0.09,345,WeatherCatV1.11B39,2013-01-28 19:50:00,
2013-01-28 12:55:00,53.8,43.5,29.90,WNW,299,5.0,8.0,68,0.00,,,0.09,350,WeatherCatV1.11B39,2013-01-28 19:55:00,
2013-01-28 13:00:00,54.4,43.7,29.90,WSW,241,9.0,9.0,67,0.00,,,0.09,939,WeatherCatV1.11B39,2013-01-28 20:00:00,
2013-01-28 13:05:00,54.3,42.8,29.90,West,264,7.0,11.0,65,0.00,,,0.09,200,WeatherCatV1.11B39,2013-01-28 20:05:00,
2013-01-28 13:10:00,53.2,42.1,29.90,West,273,13.0,18.0,66,0.00,,,0.09,207,WeatherCatV1.11B39,2013-01-28 20:10:00,
2013-01-28 13:15:00,52.5,43.4,29.91,NW,313,7.0,20.0,71,0.00,,,0.09,362,WeatherCatV1.11B39,2013-01-28 20:15:00,
2013-01-28 13:20:00,51.7,43.0,29.90,WNW,303,13.0,20.0,72,0.00,,,0.09,758,WeatherCatV1.11B39,2013-01-28 20:20:00,
2013-01-28 13:25:00,51.2,42.5,29.90,West,271,14.0,19.0,72,0.00,,,0.09,712,WeatherCatV1.11B39,2013-01-28 20:25:00,
2013-01-28 13:30:00,51.3,42.9,29.90,West,281,13.0,15.0,73,0.00,,,0.09,795,WeatherCatV1.11B39,2013-01-28 20:30:00,
2013-01-28 13:35:00,51.4,41.2,29.90,West,271,15.0,15.0,68,0.00,,,0.09,791,WeatherCatV1.11B39,2013-01-28 20:35:00,
2013-01-28 13:40:00,52.0,41.8,29.90,West,275,26.0,26.0,68,0.00,,,0.09,733,WeatherCatV1.11B39,2013-01-28 20:40:00,
2013-01-28 13:45:00,51.8,42.7,29.90,West,276,12.0,18.0,71,0.00,,,0.09,747,WeatherCatV1.11B39,2013-01-28 20:45:00,
2013-01-28 13:50:00,51.6,42.5,29.90,WNW,301,14.0,28.0,71,0.00,,,0.09,700,WeatherCatV1.11B39,2013-01-28 20:50:00,
2013-01-28 13:55:00,51.8,42.3,29.89,West,269,18.0,18.0,70,0.00,,,0.09,673,WeatherCatV1.11B39,2013-01-28 20:55:00,
2013-01-28 14:00:00,52.5,42.6,29.89,NW,309,5.0,12.0,69,0.00,,,0.09,700,WeatherCatV1.11B39,2013-01-28 21:00:00,
2013-01-28 14:05:00,52.0,40.6,29.89,WNW,292,15.0,18.0,65,0.00,,,0.09,295,WeatherCatV1.11B39,2013-01-28 21:05:00,
2013-01-28 14:10:00,51.6,40.2,29.88,WNW,290,8.0,16.0,65,0.00,,,0.09,636,WeatherCatV1.11B39,2013-01-28 21:10:00,
2013-01-28 14:15:00,52.3,40.5,29.89,WNW,284,6.0,19.0,64,0.00,,,0.09,255,WeatherCatV1.11B39,2013-01-28 21:15:00,
2013-01-28 14:20:00,51.7,39.9,29.90,WNW,294,16.0,16.0,64,0.00,,,0.09,353,WeatherCatV1.11B39,2013-01-28 21:20:00,
2013-01-28 14:25:00,51.3,40.7,29.89,WNW,297,22.0,22.0,67,0.00,,,0.09,654,WeatherCatV1.11B39,2013-01-28 21:25:00,
2013-01-28 14:30:00,50.6,43.0,29.89,NW,317,12.0,16.0,75,0.00,,,0.09,598,WeatherCatV1.11B39,2013-01-28 21:30:00,
2013-01-28 14:35:00,50.9,42.6,29.89,West,265,16.0,16.0,73,0.00,,,0.09,149,WeatherCatV1.11B39,2013-01-28 21:35:00,
2013-01-28 14:40:00,50.8,41.0,29.90,West,270,12.0,23.0,69,0.00,,,0.09,281,WeatherCatV1.11B39,2013-01-28 21:40:00,
2013-01-28 14:45:00,50.5,40.0,29.89,WNW,298,11.0,17.0,67,0.00,,,0.09,612,WeatherCatV1.11B39,2013-01-28 21:45:00,
2013-01-28 14:50:00,51.2,39.4,29.89,West,265,21.0,21.0,64,0.00,,,0.09,541,WeatherCatV1.11B39,2013-01-28 21:50:00,
2013-01-28 14:55:00,51.2,38.6,29.89,WNW,299,13.0,24.0,62,0.00,,,0.09,531,WeatherCatV1.11B39,2013-01-28 21:55:00,
2013-01-28 15:00:00,51.1,38.5,29.89,WNW,291,13.0,26.0,62,0.00,,,0.09,526,WeatherCatV1.11B39,2013-01-28 22:00:00,
2013-01-28 15:05:00,51.1,37.7,29.90,WNW,282,20.0,23.0,60,0.00,,,0.09,171,WeatherCatV1.11B39,2013-01-28 22:05:00,
2013-01-28 15:10:00,49.6,36.3,29.90,West,271,19.0,30.0,60,0.00,,,0.09,142,WeatherCatV1.11B39,2013-01-28 22:10:00,
2013-01-28 15:15:00,48.3,36.7,29.91,West,272,18.0,26.0,64,0.00,,,0.09,163,WeatherCatV1.11B39,2013-01-28 22:15:00,
2013-01-28 15:20:00,47.9,37.1,29.91,WNW,303,13.0,16.0,66,0.00,,,0.09,146,WeatherCatV1.11B39,2013-01-28 22:20:00,
2013-01-28 15:25:00,48.0,37.2,29.91,WNW,286,12.0,16.0,66,0.00,,,0.09,197,WeatherCatV1.11B39,2013-01-28 22:25:00,
2013-01-28 15:30:00,48.1,35.7,29.91,WNW,290,11.0,27.0,62,0.00,,,0.09,84,WeatherCatV1.11B39,2013-01-28 22:30:00,
2013-01-28 15:35:00,47.9,37.1,29.92,West,278,13.0,19.0,66,0.00,,,0.09,70,WeatherCatV1.11B39,2013-01-28 22:35:00,
2013-01-28 15:40:00,47.1,37.5,29.92,West,278,12.0,20.0,69,0.00,,,0.09,183,WeatherCatV1.11B39,2013-01-28 22:40:00,
2013-01-28 15:45:00,46.2,38.0,29.92,WNW,294,8.0,8.0,73,0.00,,,0.10,178,WeatherCatV1.11B39,2013-01-28 22:45:00,
2013-01-28 15:50:00,46.0,38.5,29.92,West,262,9.0,13.0,75,0.00,,,0.10,343,WeatherCatV1.11B39,2013-01-28 22:50:00,
2013-01-28 15:55:00,46.2,38.4,29.91,WNW,285,5.0,11.0,74,0.07,,,0.11,91,WeatherCatV1.11B39,2013-01-28 22:55:00,
2013-01-28 16:00:00,46.4,37.5,29.91,WSW,251,4.0,9.0,71,0.06,,,0.11,116,WeatherCatV1.11B39,2013-01-28 23:00:00,
2013-01-28 16:05:00,46.9,37.6,29.92,West,272,8.0,15.0,70,0.04,,,0.11,290,WeatherCatV1.11B39,2013-01-28 23:05:00,
2013-01-28 16:10:00,47.9,36.3,29.91,West,267,6.0,12.0,64,0.00,,,0.11,320,WeatherCatV1.11B39,2013-01-28 23:10:00,
2013-01-28 16:15:00,48.5,35.7,29.91,West,263,5.0,8.0,61,0.00,,,0.11,294,WeatherCatV1.11B39,2013-01-28 23:15:00,
2013-01-28 16:20:00,49.2,35.9,29.91,WSW,245,8.0,12.0,60,0.00,,,0.11,265,WeatherCatV1.11B39,2013-01-28 23:20:00,
2013-01-28 16:25:00,49.5,35.8,29.91,WSW,257,8.0,12.0,59,0.00,,,0.11,265,WeatherCatV1.11B39,2013-01-28 23:25:00,
2013-01-28 16:30:00,49.6,35.0,29.91,SW,230,8.0,12.0,57,0.00,,,0.11,241,WeatherCatV1.11B39,2013-01-28 23:30:00,
2013-01-28 16:35:00,49.6,35.4,29.91,WNW,295,7.0,12.0,58,0.00,,,0.11,218,WeatherCatV1.11B39,2013-01-28 23:35:00,
2013-01-28 16:40:00,50.0,35.4,29.90,WSW,240,7.0,12.0,57,0.00,,,0.11,200,WeatherCatV1.11B39,2013-01-28 23:40:00,
2013-01-28 16:45:00,50.1,35.5,29.90,SW,234,5.0,10.0,57,0.00,,,0.11,158,WeatherCatV1.11B39,2013-01-28 23:45:00,
2013-01-28 16:50:00,49.9,34.8,29.90,West,273,11.0,11.0,56,0.00,,,0.11,121,WeatherCatV1.11B39,2013-01-28 23:50:00,
2013-01-28 16:55:00,49.8,33.4,29.90,West,262,8.0,15.0,53,0.00,,,0.11,95,WeatherCatV1.11B39,2013-01-28 23:55:00,
2013-01-28 17:00:00,49.8,33.4,29.90,WNW,283,12.0,13.0,53,0.00,,,0.11,70,WeatherCatV1.11B39,2013-01-29 00:00:00,
2013-01-28 17:05:00,49.6,33.2,29.90,WSW,238,5.0,11.0,53,0.00,,,0.11,33,WeatherCatV1.11B39,2013-01-29 00:05:00,
2013-01-28 17:10:00,49.4,32.5,29.90,WNW,287,5.0,14.0,52,0.00,,,0.11,44,WeatherCatV1.11B39,2013-01-29 00:10:00,
2013-01-28 17:15:00,49.2,33.7,29.90,WSW,242,3.0,10.0,55,0.00,,,0.11,23,WeatherCatV1.11B39,2013-01-29 00:15:00,
2013-01-28 17:20:00,48.5,32.6,29.90,WSW,248,7.0,14.0,54,0.00,,,0.11,21,WeatherCatV1.11B39,2013-01-29 00:20:00,
2013-01-28 17:25:00,48.5,32.6,29.91,WSW,243,8.0,12.0,54,0.00,,,0.11,25,WeatherCatV1.11B39,2013-01-29 00:25:00,
2013-01-28 17:30:00,48.5,33.1,29.91,West,273,7.0,10.0,55,0.00,,,0.11,23,WeatherCatV1.11B39,2013-01-29 00:30:00,
2013-01-28 17:35:00,48.5,32.6,29.91,WSW,246,8.0,15.0,54,0.00,,,0.11,21,WeatherCatV1.11B39,2013-01-29 00:35:00,
2013-01-28 17:40:00,48.5,32.2,29.90,WNW,290,5.0,12.0,53,0.00,,,0.11,12,WeatherCatV1.11B39,2013-01-29 00:40:00,
2013-01-28 17:45:00,48.3,32.4,29.91,SW,220,7.0,10.0,54,0.00,,,0.11,9,WeatherCatV1.11B39,2013-01-29 00:45:00,
2013-01-28 17:50:00,48.0,32.6,29.91,West,265,3.0,12.0,55,0.00,,,0.11,5,WeatherCatV1.11B39,2013-01-29 00:50:00,
2013-01-28 17:55:00,47.9,32.5,29.90,WSW,250,4.0,8.0,55,0.00,,,0.11,0,WeatherCatV1.11B39,2013-01-29 00:55:00,
2013-01-28 18:00:00,47.8,32.0,29.90,WNW,294,5.0,10.0,54,0.00,,,0.11,0,WeatherCatV1.11B39,2013-01-29 01:00:00,
2013-01-28 18:05:00,48.0,31.2,29.91,West,279,6.0,11.0,52,0.00,,,0.11,0,WeatherCatV1.11B39,2013-01-29 01:05:00,
2013-01-28 18:10:00,48.0,31.2,29.90,West,271,5.0,10.0,52,0.00,,,0.11,0,WeatherCatV1.11B39,2013-01-29 01:10:00,
2013-01-28 18:15:00,48.1,31.3,29.90,WNW,296,3.0,7.0,52,0.00,,,0.11,0,WeatherCatV1.11B39,2013-01-29 01:15:00,
2013-01-28 18:20:00,48.0,31.7,29.90,West,274,5.0,10.0,53,0.00,,,0.11,0,WeatherCatV1.11B39,2013-01-29 01:20:00,
2013-01-28 18:25:00,47.8,30.6,29.91,NNW,330,8.0,13.0,51,0.00,,,0.11,0,WeatherCatV1.11B39,2013-01-29 01:25:00,
2013-01-28 18:30:00,48.0,30.7,29.91,NW,313,8.0,16.0,51,0.00,,,0.11,0,WeatherCatV1.11B39,2013-01-29 01:30:00,
2013-01-28 18:35:00,47.9,30.7,29.90,West,272,5.0,9.0,51,0.00,,,0.11,0,WeatherCatV1.11B39,2013-01-29 01:35:00,
2013-01-28 18:40:00,47.8,31.5,29.91,WSW,250,7.0,11.0,53,0.00,,,0.11,0,WeatherCatV1.11B39,2013-01-29 01:40:00,
2013-01-28 18:45:00,47.4,31.6,29.91,West,270,7.0,9.0,54,0.00,,,0.11,0,WeatherCatV1.11B39,2013-01-29 01:45:00,
2013-01-28 18:50:00,47.3,31.0,29.92,West,265,4.0,10.0,53,0.00,,,0.11,0,WeatherCatV1.11B39,2013-01-29 01:50:00,
2013-01-28 18:55:00,47.3,30.6,29.93,NW,307,8.0,11.0,52,0.00,,,0.11,0,WeatherCatV1.11B39,2013-01-29 01:55:00,
2013-01-28 19:00:00,47.4,29.7,29.93,West,278,6.0,11.0,50,0.00,,,0.11,0,WeatherCatV1.11B39,2013-01-29 02:00:00,
2013-01-28 19:05:00,47.6,29.9,29.93,West,266,6.0,11.0,50,0.00,,,0.11,0,WeatherCatV1.11B39,2013-01-29 02:05:00,
2013-01-28 19:10:00,47.7,30.5,29.93,WSW,249,7.0,8.0,51,0.00,,,0.11,0,WeatherCatV1.11B39,2013-01-29 02:10:00,
2013-01-28 19:15:00,47.6,30.9,29.94,West,277,11.0,11.0,52,0.00,,,0.11,0,WeatherCatV1.11B39,2013-01-29 02:15:00,
2013-01-28 19:20:00,47.3,31.0,29.94,WNW,286,14.0,15.0,53,0.00,,,0.11,0,WeatherCatV1.11B39,2013-01-29 02:20:00,
2013-01-28 19:25:00,47.1,31.3,29.94,NW,305,3.0,11.0,54,0.00,,,0.11,0,WeatherCatV1.11B39,2013-01-29 02:25:00,
2013-01-28 19:30:00,46.9,31.1,29.94,NW,326,9.0,13.0,54,0.00,,,0.11,0,WeatherCatV1.11B39,2013-01-29 02:30:00,
2013-01-28 19:35:00,47.1,30.4,29.94,NW,321,7.0,11.0,52,0.00,,,0.11,0,WeatherCatV1.11B39,2013-01-29 02:35:00,
2013-01-28 19:40:00,47.2,30.0,29.94,NW,307,6.0,9.0,51,0.00,,,0.11,0,WeatherCatV1.11B39,2013-01-29 02:40:00,
2013-01-28 19:45:00,47.3,29.6,29.94,West,272,4.0,9.0,50,0.00,,,0.11,0,WeatherCatV1.11B39,2013-01-29 02:45:00,
2013-01-28 19:50:00,47.3,30.1,29.94,SW,234,5.0,6.0,51,0.00,,,0.11,0,WeatherCatV1.11B39,2013-01-29 02:50:00,
2013-01-28 19:55:00,47.0,30.8,29.95,SW,225,3.0,7.0,53,0.00,,,0.11,0,WeatherCatV1.11B39,2013-01-29 02:55:00,
2013-01-28 20:00:00,46.9,30.2,29.95,SW,221,2.0,6.0,52,0.00,,,0.11,0,WeatherCatV1.11B39,2013-01-29 03:00:00,
2013-01-28 20:05:00,46.8,30.1,29.95,West,274,4.0,12.0,52,0.00,,,0.11,0,WeatherCatV1.11B39,2013-01-29 03:05:00,
2013-01-28 20:10:00,46.9,29.7,29.95,WSW,247,7.0,7.0,51,0.00,,,0.11,0,WeatherCatV1.11B39,2013-01-29 03:10:00,
2013-01-28 20:15:00,46.9,30.7,29.95,WSW,240,4.0,6.0,53,0.00,,,0.11,0,WeatherCatV1.11B39,2013-01-29 03:15:00,
2013-01-28 20:20:00,46.8,30.6,29.95,SW,227,5.0,6.0,53,0.00,,,0.11,0,WeatherCatV1.11B39,2013-01-29 03:20:00,
2013-01-28 20:25:00,46.6,30.4,29.95,WSW,239,5.0,6.0,53,0.00,,,0.11,0,WeatherCatV1.11B39,2013-01-29 03:25:00,
2013-01-28 20:30:00,46.5,29.8,29.95,WSW,249,6.0,8.0,52,0.00,,,0.11,0,WeatherCatV1.11B39,2013-01-29 03:30:00,
2013-01-28 20:35:00,46.6,29.5,29.95,WNW,292,5.0,11.0,51,0.00,,,0.11,0,WeatherCatV1.11B39,2013-01-29 03:35:00,
2013-01-28 20:40:00,46.6,29.9,29.95,WNW,284,8.0,8.0,52,0.00,,,0.11,0,WeatherCatV1.11B39,2013-01-29 03:40:00,
2013-01-28 20:45:00,46.5,29.4,29.95,West,267,3.0,13.0,51,0.00,,,0.11,0,WeatherCatV1.11B39,2013-01-29 03:45:00,
2013-01-28 20:50:00,46.5,29.4,29.96,West,263,5.0,10.0,51,0.00,,,0.11,0,WeatherCatV1.11B39,2013-01-29 03:50:00,
2013-01-28 20:55:00,46.6,29.0,29.96,WNW,290,6.0,15.0,50,0.00,,,0.11,0,WeatherCatV1.11B39,2013-01-29 03:55:00,
2013-01-28 21:00:00,46.7,29.5,29.96,West,267,2.0,8.0,51,0.00,,,0.11,0,WeatherCatV1.11B39,2013-01-29 04:00:00,
2013-01-28 21:05:00,46.6,29.9,29.96,West,280,2.0,8.0,52,0.00,,,0.11,0,WeatherCatV1.11B39,2013-01-29 04:05:00,
2013-01-28 21:10:00,46.5,28.9,29.96,WSW,258,9.0,11.0,50,0.00,,,0.11,0,WeatherCatV1.11B39,2013-01-29 04:10:00,
2013-01-28 21:15:00,46.6,29.0,29.96,WSW,256,10.0,10.0,50,0.00,,,0.11,0,WeatherCatV1.11B39,2013-01-29 04:15:00,
2013-01-28 21:20:00,46.6,28.5,29.96,SSW,207,6.0,10.0,49,0.00,,,0.11,0,WeatherCatV1.11B39,2013-01-29 04:20:00,
2013-01-28 21:25:00,46.4,29.3,29.97,NW,304,1.0,3.0,51,0.00,,,0.11,0,WeatherCatV1.11B39,2013-01-29 04:25:00,
2013-01-28 21:30:00,46.3,29.6,29.97,WSW,247,5.0,9.0,52,0.00,,,0.11,0,WeatherCatV1.11B39,2013-01-29 04:30:00,
2013-01-28 21:35:00,46.2,29.6,29.97,West,261,6.0,11.0,52,0.00,,,0.11,0,WeatherCatV1.11B39,2013-01-29 04:35:00,
2013-01-28 21:40:00,45.9,30.7,29.98,West,274,10.0,10.0,55,0.00,,,0.11,0,WeatherCatV1.11B39,2013-01-29 04:40:00,
2013-01-28 21:45:00,45.5,31.2,29.98,West,259,3.0,11.0,57,0.00,,,0.11,0,WeatherCatV1.11B39,2013-01-29 04:45:00,
2013-01-28 21:50:00,45.0,32.0,29.97,WSW,240,3.0,9.0,60,0.00,,,0.11,0,WeatherCatV1.11B39,2013-01-29 04:50:00,
2013-01-28 21:55:00,44.6,32.4,29.97,SSW,205,3.0,9.0,62,0.00,,,0.11,0,WeatherCatV1.11B39,2013-01-29 04:55:00,
2013-01-28 22:00:00,44.3,32.5,29.97,SW,217,3.0,6.0,63,0.00,,,0.11,0,WeatherCatV1.11B39,2013-01-29 05:00:00,
2013-01-28 22:05:00,44.1,32.7,29.97,SW,224,5.0,6.0,64,0.00,,,0.11,0,WeatherCatV1.11B39,2013-01-29 05:05:00,
2013-01-28 22:10:00,44.2,32.4,29.97,SW,221,4.0,6.0,63,0.00,,,0.11,0,WeatherCatV1.11B39,2013-01-29 05:10:00,
2013-01-28 22:15:00,44.2,32.8,29.97,WSW,240,4.0,6.0,64,0.00,,,0.11,0,WeatherCatV1.11B39,2013-01-29 05:15:00,
2013-01-28 22:20:00,44.3,32.5,29.97,SW,231,3.0,5.0,63,0.00,,,0.11,0,WeatherCatV1.11B39,2013-01-29 05:20:00,
2013-01-28 22:25:00,44.3,32.9,29.97,SSW,199,2.0,4.0,64,0.00,,,0.11,0,WeatherCatV1.11B39,2013-01-29 05:25:00,
2013-01-28 22:30:00,44.2,32.4,29.97,SSW,203,3.0,3.0,63,0.00,,,0.11,0,WeatherCatV1.11B39,2013-01-29 05:30:00,
2013-01-28 22:35:00,44.3,32.5,29.97,SSW,209,5.0,5.0,63,0.00,,,0.11,0,WeatherCatV1.11B39,2013-01-29 05:35:00,
2013-01-28 22:40:00,44.2,33.2,29.97,SSW,209,0.0,3.0,65,0.00,,,0.11,0,WeatherCatV1.11B39,2013-01-29 05:40:00,
2013-01-28 22:45:00,44.1,33.5,29.97,SW,219,4.0,5.0,66,0.00,,,0.11,0,WeatherCatV1.11B39,2013-01-29 05:45:00,
2013-01-28 22:50:00,44.1,32.7,29.97,West,264,6.0,10.0,64,0.00,,,0.11,0,WeatherCatV1.11B39,2013-01-29 05:50:00,
2013-01-28 22:55:00,44.3,32.5,29.97,West,259,4.0,9.0,63,0.00,,,0.11,0,WeatherCatV1.11B39,2013-01-29 05:55:00,
2013-01-28 23:00:00,44.2,33.6,29.98,North,1,0.0,3.0,66,0.00,,,0.11,0,WeatherCatV1.11B39,2013-01-29 06:00:00,
2013-01-28 23:05:00,43.8,33.9,29.98,NE,47,2.0,5.0,68,0.00,,,0.11,0,WeatherCatV1.11B39,2013-01-29 06:05:00,
2013-01-28 23:10:00,43.6,34.1,29.98,NNW,330,5.0,6.0,69,0.00,,,0.11,0,WeatherCatV1.11B39,2013-01-29 06:10:00,
2013-01-28 23:15:00,43.5,33.7,29.98,NNW,331,3.0,3.0,68,0.00,,,0.11,0,WeatherCatV1.11B39,2013-01-29 06:15:00,
2013-01-28 23:20:00,43.7,32.7,29.98,WNW,285,7.0,7.0,65,0.00,,,0.11,0,WeatherCatV1.11B39,2013-01-29 06:20:00,
2013-01-28 23:25:00,43.8,32.4,29.98,NW,307,2.0,5.0,64,0.00,,,0.11,0,WeatherCatV1.11B39,2013-01-29 06:25:00,
2013-01-28 23:30:00,43.9,30.9,29.99,WNW,296,5.0,11.0,60,0.00,,,0.11,0,WeatherCatV1.11B39,2013-01-29 06:30:00,
2013-01-28 23:35:00,43.9,31.3,29.98,WNW,303,8.0,8.0,61,0.00,,,0.11,0,WeatherCatV1.11B39,2013-01-29 06:35:00,
2013-01-28 23:40:00,43.9,31.3,29.98,West,272,2.0,9.0,61,0.00,,,0.11,0,WeatherCatV1.11B39,2013-01-29 06:40:00,
2013-01-28 23:45:00,43.8,31.2,29.98,WNW,293,4.0,6.0,61,0.00,,,0.11,0,WeatherCatV1.11B39,2013-01-29 06:45:00,
2013-01-28 23:50:00,43.8,30.4,29.99,WNW,303,7.0,11.0,59,0.00,,,0.11,0,WeatherCatV1.11B39,2013-01-29 06:50:00,
2013-01-28 23:55:00,43.8,30.8,29.99,NW,320,5.0,10.0,60,0.00,,,0.11,0,WeatherCatV1.11B39,2013-01-29 06:55:00,